{"data":{"norad_id":67120,"epoch":"2026-05-25T04:45:44.767584Z","epoch_age_seconds":53940,"freshness":"FRESH","line1":"1 67120U 25299U   26145.19843481  .00014720  00000+0  54313-3 0  9991","line2":"2 67120  43.0013  97.2178 0002131 253.2157 106.8461 15.27594562 24812","mean_motion":15.27594562,"eccentricity":0.0002131,"inclination_deg":43.0013,"raan_deg":97.2178,"arg_perigee_deg":253.2157,"mean_anomaly_deg":106.8461,"bstar":0.00054313,"rev_number":2481,"period_min":94.265850103229,"perigee_km":481.54338305423,"apogee_km":484.46760198454,"semimajor_km":6861.1424925194,"source":"CELESTRAK","updated_at":"2026-05-25T13:38:21.476633Z"}}